Theta_e
323 322 321 320 319 319 318 318 318 317 316 313 309 308 308 308 307 307 307 309 312 313 314 315 315 315 314 313 314 313 312 313 314 314 314 313 315 316 319 320 321 323 327 329 332 334 335 336 337 339 338 338 339 338 337 337 337 336 335 334 333 333 332 331 331 330 329 329 330 329 329 329 328 329 329 331 333 335 335 333 333 335 336 336 338
323 322 321 319 319 319 318 318 318 317 314 310 307 307 307 306 306 307 308 310 312 315 315 314 314 313 312 312 313 313 312 312 312 313 313 313 314 314 318 320 321 322 325 328 330 332 333 334 337 338 337 339 338 338 337 337 337 336 336 335 334 333 333 332 332 331 330 331 330 328 329 329 329 331 331 332 333 334 335 335 335 335 335 337 338
323 321 320 319 318 318 318 318 317 316 312 308 307 308 307 307 307 306 308 309 310 313 315 315 314 313 312 312 312 312 312 313 313 313 314 312 312 315 316 319 320 321 323 325 327 330 331 333 335 337 338 338 337 338 338 337 337 336 335 334 333 334 333 333 332 332 331 331 331 330 328 328 329 330 330 331 333 334 335 336 336 334 336 336 337
323 322 320 319 318 318 318 318 317 315 311 308 306 308 308 308 307 308 309 310 312 312 315 312 313 314 313 312 312 312 312 312 312 312 312 313 311 314 313 316 319 319 322 323 326 328 329 331 334 336 337 337 337 338 337 337 337 336 335 334 336 334 334 333 332 332 332 330 330 331 329 327 328 330 331 332 334 335 335 336 336 336 337 336 336
323 322 319 319 318 317 317 317 317 315 311 308 307 307 308 307 309 310 309 310 311 312 314 313 310 312 313 312 312 311 311 311 312 311 312 311 311 312 312 314 314 319 320 321 325 326 328 330 332 334 336 339 337 336 337 337 337 336 336 335 335 334 334 334 334 333 331 332 333 333 330 329 329 331 333 334 335 336 336 336 335 336 338 336 336
324 322 320 318 318 317 317 317 316 315 311 308 306 307 306 307 307 309 311 309 309 310 311 310 309 309 311 311 310 309 310 311 311 311 312 310 310 310 312 313 314 315 316 319 322 324 326 328 330 332 334 336 337 336 337 336 336 336 336 336 334 334 334 334 334 334 334 334 333 334 332 331 331 333 334 334 335 336 337 337 336 337 338 338 338
324 323 320 318 318 317 317 317 316 314 310 307 306 308 307 306 307 308 307 307 308 309 311 311 310 310 310 311 312 311 310 310 311 310 311 309 309 310 312 312 312 313 315 315 320 321 323 325 328 329 332 333 336 337 336 337 336 337 337 336 336 334 334 334 334 333 333 334 333 332 332 334 332 332 334 336 336 335 336 337 336 336 337 338 339
325 324 321 319 318 318 317 317 316 313 310 307 306 307 306 307 307 308 306 306 307 309 309 310 310 310 309 310 309 309 308 308 309 310 310 309 308 311 311 312 313 312 314 314 315 318 321 322 325 327 328 330 333 335 338 336 336 336 337 337 336 335 334 334 334 333 332 332 332 332 332 332 334 335 335 335 335 335 336 337 336 337 338 339 339
325 324 322 320 319 318 317 317 315 312 309 307 306 307 306 307 306 308 307 305 307 307 308 310 309 310 310 308 308 308 308 308 309 309 311 308 308 310 311 312 312 315 313 315 314 316 318 319 322 323 324 326 330 334 336 336 336 337 337 337 336 336 335 335 335 335 333 333 333 333 333 333 333 333 334 335 335 337 337 337 337 337 338 338 338
324 324 323 322 319 318 317 316 315 312 309 307 305 305 306 306 305 306 307 308 307 308 308 308 310 310 308 308 307 307 306 307 308 308 307 306 308 309 310 310 312 313 312 313 313 315 315 318 319 320 321 322 327 332 334 335 335 334 335 336 336 335 336 336 336 337 336 335 335 335 334 334 333 332 334 335 336 336 337 338 338 338 338 339 339
324 324 323 321 319 317 317 316 314 312 309 306 305 304 306 306 306 306 307 308 307 308 309 309 309 309 308 308 307 307 307 307 307 307 306 307 307 307 311 312 310 312 312 312 313 313 313 314 316 318 319 320 323 328 331 330 334 335 334 336 337 335 335 336 336 336 336 335 335 335 336 335 333 332 334 336 338 338 338 338 338 338 338 338 336
323 323 323 320 319 317 316 316 314 312 309 306 304 303 305 306 305 306 305 305 306 309 309 309 306 306 306 306 307 307 307 306 306 306 306 307 306 305 307 311 310 310 313 313 312 312 312 313 314 317 318 319 320 323 327 327 332 334 334 335 335 336 336 336 336 336 335 334 334 335 336 337 337 336 337 338 338 338 338 338 338 338 338 337 337
322 323 322 319 319 317 316 315 314 312 309 307 305 304 305 306 306 306 305 305 304 305 308 308 307 305 305 306 306 306 307 307 306 306 306 305 306 305 306 309 310 309 311 311 311 311 310 312 313 316 317 317 319 321 322 324 327 334 335 334 335 335 336 335 335 335 335 335 335 334 335 337 337 337 337 337 338 337 337 336 336 337 336 336 335
320 321 320 319 317 317 316 315 314 312 310 308 305 305 305 307 306 305 306 305 304 305 309 308 303 301 301 302 303 304 305 306 305 306 305 306 305 304 306 308 309 310 311 310 310 312 311 311 311 315 315 316 318 320 321 323 325 329 333 334 334 335 335 335 335 335 335 335 334 334 335 335 335 336 337 337 337 337 337 336 336 335 335 336 337
319 319 320 318 317 317 316 315 314 312 310 308 306 304 306 307 306 306 305 304 303 306 307 307 300 302 300 300 299 301 302 301 303 305 306 306 305 304 304 306 308 309 309 309 309 310 312 312 311 312 313 315 316 318 320 321 325 326 329 332 332 334 334 335 334 334 334 334 334 335 335 335 335 335 336 337 337 337 337 337 336 337 337 337 337
317 318 318 318 317 317 316 315 314 313 311 308 306 304 306 307 306 306 306 303 303 304 307 307 302 302 297 297 296 300 297 297 297 300 304 304 306 305 304 305 306 308 308 308 309 309 310 311 311 312 312 312 315 316 318 320 324 324 328 330 331 332 335 335 335 335 333 334 334 335 336 336 336 335 335 335 336 336 336 336 336 336 336 336 336
316 317 317 318 317 317 316 315 314 313 312 309 306 305 307 307 307 306 306 304 302 303 305 308 304 303 300 296 295 294 294 296 297 297 300 301 303 305 304 303 305 308 307 307 308 308 309 309 311 311 310 312 312 314 317 318 319 318 323 330 333 333 333 334 334 335 335 334 333 334 334 335 336 335 335 335 335 335 335 335 335 335 335 335 335
316 316 316 316 316 316 315 315 314 313 312 311 308 305 306 307 307 306 306 304 304 304 303 305 306 304 304 300 298 294 294 297 294 292 298 299 302 302 303 302 301 304 306 307 308 308 309 309 311 310 311 311 313 313 314 316 318 318 322 328 332 333 333 335 336 336 334 335 334 334 333 334 335 335 335 335 335 335 335 334 334 334 334 335 334
315 315 315 315 316 316 315 315 315 314 312 311 309 306 307 307 308 306 306 305 304 304 304 305 304 305 304 301 299 299 299 298 295 293 292 295 299 300 300 301 301 303 305 306 308 307 308 309 309 309 309 312 314 315 316 317 320 319 325 331 332 332 333 333 334 335 336 335 334 333 333 333 334 334 334 334 334 334 334 334 334 334 334 334 334
315 315 315 315 315 315 315 314 314 314 312 312 310 308 307 308 307 307 306 306 305 305 305 305 304 303 304 303 300 300 300 300 298 295 294 292 294 297 299 301 301 301 303 305 307 307 309 308 308 308 308 310 314 316 317 317 314 313 317 328 332 332 333 333 333 333 334 335 334 333 333 333 333 333 334 333 333 333 333 333 334 334 334 334 334
314 315 315 315 314 314 315 314 313 313 312 312 310 309 307 307 306 306 305 305 305 305 305 305 304 302 302 301 299 299 299 299 299 297 295 292 293 293 294 298 299 300 302 303 305 305 307 308 307 308 310 310 312 316 316 316 313 310 315 326 331 331 332 333 333 333 333 333 333 333 333 333 333 332 333 333 333 333 333 332 333 333 334 334 334
313 314 314 314 313 313 314 314 313 313 311 312 310 309 308 307 307 307 306 305 305 304 306 305 305 302 304 302 301 298 298 297 297 296 297 296 293 294 294 296 295 297 300 301 301 302 303 304 306 306 306 311 312 315 316 313 311 308 310 317 327 331 331 332 332 333 333 332 332 332 332 332 332 332 332 332 333 333 333 332 333 333 333 334 334
312 312 313 314 313 313 313 313 313 312 310 311 310 309 308 308 307 307 305 305 305 304 304 305 304 302 303 302 301 301 300 298 298 297 296 293 294 295 294 297 296 295 299 299 300 301 302 301 304 305 307 309 311 315 316 312 307 304 304 310 319 328 331 331 332 332 332 333 332 332 331 332 332 332 332 332 332 332 332 332 332 333 333 333 333
311 311 312 312 312 312 312 312 312 312 311 311 310 308 308 308 307 307 305 305 305 304 304 303 303 302 303 302 301 301 301 300 300 300 298 296 297 297 296 296 296 296 298 298 299 300 300 302 302 304 308 308 312 315 311 310 306 300 308 308 315 323 330 331 330 330 331 330 331 331 331 331 331 331 331 332 332 332 332 332 332 332 332 332 332
310 310 311 312 311 311 311 311 312 312 310 310 309 308 307 308 308 307 306 305 305 305 304 303 304 302 304 303 302 302 302 301 302 301 300 299 298 296 297 294 293 295 296 296 297 298 301 302 302 300 305 307 312 312 312 310 309 303 305 307 311 318 327 331 331 331 329 330 329 330 331 331 331 331 331 331 331 331 331 332 332 331 330 330 330
309 310 311 311 311 311 311 311 311 311 309 309 309 308 308 307 307 307 305 306 305 305 305 303 304 302 305 303 302 303 303 303 302 302 301 300 297 298 297 295 293 295 296 295 296 298 298 300 300 301 302 304 311 307 309 306 305 300 302 304 307 312 320 326 328 330 331 329 329 329 329 331 331 331 330 331 330 330 330 331 331 330 330 329 330
309 310 310 311 311 310 310 310 311 311 309 309 309 308 307 307 307 307 306 305 306 305 304 303 304 302 304 304 303 302 303 303 301 303 302 301 300 299 298 295 293 294 294 294 295 295 296 297 299 300 300 303 305 305 306 306 302 298 300 306 304 310 316 322 325 327 329 330 330 328 328 328 329 328 328 329 329 329 329 330 330 330 331 331 331
309 309 309 310 310 310 309 310 310 310 309 309 308 308 307 306 305 306 305 307 306 305 304 304 304 303 303 303 302 301 303 303 303 302 301 302 301 300 299 297 295 292 291 293 293 294 296 296 296 298 299 302 303 302 303 303 303 295 297 305 304 305 311 317 322 325 326 327 328 329 328 327 327 327 327 328 328 329 330 330 330 330 330 330 331
309 309 309 309 310 309 309 309 309 309 309 309 309 308 307 306 305 305 305 305 305 305 304 304 304 304 302 303 303 302 301 303 302 303 302 301 302 300 301 299 296 293 290 289 293 293 296 295 294 297 298 299 301 300 302 302 301 300 303 306 305 302 307 311 316 319 320 323 325 326 328 329 328 327 328 327 327 327 327 327 328 329 330 330 331
309 309 309 309 309 307 309 308 309 309 308 308 308 307 306 306 305 305 306 305 305 304 305 305 304 305 303 302 302 302 302 302 303 302 302 302 300 301 299 299 298 296 294 293 294 295 295 296 295 294 297 298 300 299 300 298 299 299 302 302 302 300 303 306 310 314 315 316 321 324 326 327 327 328 328 328 327 327 326 326 327 330 330 331 331
307 308 308 308 308 308 308 308 308 308 307 307 307 307 306 305 304 304 304 304 304 304 304 304 305 305 303 302 302 301 303 302 302 302 301 302 301 300 299 300 299 298 296 295 292 296 296 297 296 296 297 296 299 298 299 297 297 299 301 299 297 293 298 302 305 309 311 313 315 320 323 324 325 326 327 327 327 328 329 329 328 329 329 329 328
307 307 307 307 308 307 308 307 307 307 307 306 306 306 305 305 304 303 304 304 304 303 304 303 305 305 304 303 302 302 302 302 302 302 301 301 301 300 301 301 298 298 297 294 293 295 296 295 295 296 298 298 297 300 297 296 295 299 297 297 294 290 295 298 300 304 308 309 311 313 316 318 320 322 323 324 325 325 325 326 327 327 327 327 325
306 306 306 307 307 307 307 306 306 306 306 306 306 306 305 304 304 304 303 304 303 303 303 303 303 304 304 303 303 302 301 302 302 302 301 301 301 301 301 299 299 297 298 295 294 294 294 295 296 297 296 297 297 297 297 294 294 297 298 296 296 297 297 300 299 300 303 305 306 308 310 310 311 313 315 317 318 319 319 318 318 317 316 317 317
306 306 306 306 306 306 306 305 306 306 306 305 305 305 304 304 304 304 303 303 303 302 303 303 303 304 304 303 303 302 301 302 301 301 301 301 301 300 299 300 298 299 298 298 294 293 293 293 294 294 296 295 296 295 298 296 294 293 297 297 296 295 296 298 298 298 300 301 303 305 306 306 306 306 307 309 311 311 311 310 309 308 308 309 310
305 306 305 305 305 305 305 305 305 305 305 305 304 304 304 304 303 303 303 303 303 302 302 302 303 303 303 303 303 303 302 302 301 301 301 301 301 300 300 299 299 299 298 298 296 294 294 293 294 295 295 294 294 296 294 297 295 296 296 295 296 297 297 295 297 296 299 300 302 303 305 305 305 305 305 305 305 305 306 306 306 306 306 306 307
305 304 305 304 304 304 304 304 304 304 304 304 304 304 304 303 303 303 302 303 303 303 302 302 302 303 303 302 302 303 302 302 301 301 301 301 300 300 299 299 299 299 299 298 297 296 294 295 293 295 295 295 294 293 294 292 295 293 294 294 293 294 296 296 295 294 297 299 300 301 302 303 303 303 304 304 304 304 304 304 304 303 303 304 304
304 303 303 303 303 303 303 303 303 303 303 304 303 303 303 303 303 303 302 302 303 303 303 302 301 303 302 302 302 302 301 301 300 300 300 300 300 299 299 299 299 299 299 299 298 296 296 296 295 291 292 290 289 289 292 294 290 290 290 291 293 293 293 294 295 294 295 297 297 297 298 300 300 301 302 302 303 303 302 302 301 300 300 300 300
303 303 303 303 303 303 303 303 303 303 303 303 303 303 303 303 303 303 302 302 302 302 302 302 302 303 303 302 302 302 302 301 301 301 300 300 300 299 298 299 299 299 298 297 298 296 295 295 296 291 290 292 290 289 289 291 292 289 290 291 291 291 291 293 294 296 295 294 293 294 296 298 298 299 300 301 301 301 301 300 299 298 298 299 300
302 302 302 302 302 303 303 303 303 303 303 303 303 302 302 302 302 302 302 302 302 302 302 302 302 302 303 302 302 302 302 302 301 301 300 300 300 299 299 299 298 298 298 297 297 297 296 295 291 293 293 288 289 292 290 288 289 288 290 288 290 289 289 290 292 293 292 293 293 293 293 293 294 295 299 299 299 299 299 299 298 297 297 299 300
302 302 302 302 302 302 302 302 303 302 302 302 302 302 302 302 301 301 301 301 301 301 301 301 301 302 302 302 302 302 303 302 302 301 301 300 300 299 299 299 298 298 297 296 296 296 295 294 294 292 291 291 288 284 287 289 290 289 289 287 291 289 289 288 287 291 291 289 292 292 293 292 291 293 297 297 297 298 298 297 297 295 295 298 299
302 302 302 302 301 301 301 302 302 302 302 302 302 302 301 301 301 301 301 301 301 300 300 300 300 301 301 302 302 302 301 299 297 298 299 299 301 299 298 299 298 298 297 296 296 295 294 294 292 289 290 289 290 289 289 289 291 292 290 287 289 290 290 290 290 287 287 288 289 288 291 290 292 291 292 292 292 295 295 296 295 295 296 298 299
300 300 301 301 301 301 300 300 300 301 302 303 298 298 298 301 301 301 301 300 300 300 299 299 299 300 300 301 301 297 296 295 295 296 297 297 297 300 300 300 299 298 297 296 294 294 294 292 293 291 290 290 290 290 290 289 287 285 288 289 288 288 288 287 288 287 289 287 288 288 290 290 289 289 290 292 292 292 293 292 291 293 296 298 298
298 298 299 299 300 299 299 299 299 300 302 302 296 298 299 299 300 300 300 300 299 299 299 299 299 299 298 299 300 296 295 294 296 295 296 296 296 297 297 297 298 300 297 296 295 294 293 293 292 291 292 291 290 289 290 289 288 289 289 290 289 288 289 288 286 287 285 288 285 286 289 288 286 288 287 289 290 292 292 292 295 295 297 297 297
294 293 295 298 298 297 299 298 299 299 300 297 297 298 298 298 298 300 299 299 299 299 298 298 299 298 298 298 298 299 298 298 298 296 296 295 296 296 296 296 296 297 298 298 296 293 293 292 290 292 291 292 291 289 289 289 289 287 288 289 289 289 288 286 283 286 287 287 286 286 287 287 284 287 288 290 288 289 292 295 297 297 297 297 297
291 293 295 295 295 295 296 296 297 297 294 296 297 297 297 298 298 298 299 299 298 298 298 298 297 297 296 296 296 297 298 293 294 297 296 295 294 295 295 295 295 296 297 297 297 298 297 295 293 291 292 292 290 290 291 291 290 289 287 288 288 288 288 287 284 283 288 284 287 284 285 286 284 284 286 288 287 288 291 293 296 297 297 297 296
291 291 290 292 291 291 293 294 294 292 293 294 296 296 296 297 297 298 298 298 298 297 297 297 297 296 295 295 295 294 293 293 294 295 294 294 293 294 293 294 296 294 295 295 294 295 295 296 294 293 292 291 292 291 289 291 291 290 289 289 287 287 287 286 283 285 286 285 287 283 284 287 284 285 285 288 286 287 286 293 296 297 297 296 296
290 290 289 290 289 289 289 290 290 291 294 294 295 296 296 296 297 296 297 297 297 296 296 295 295 295 295 295 294 294 292 292 293 293 293 292 292 292 291 291 292 291 289 288 287 288 292 294 293 292 291 292 291 289 289 290 291 290 290 289 288 287 286 284 286 284 286 284 283 282 283 285 284 284 285 285 286 285 285 295 297 297 296 296 296
289 288 288 288 288 289 289 289 289 288 289 293 294 294 295 296 296 295 295 294 294 294 293 293 293 293 293 293 293 292 291 292 291 293 293 292 291 291 290 288 288 286 286 287 290 290 289 290 290 289 289 290 291 289 289 289 288 288 288 288 288 288 288 285 284 284 284 285 283 284 283 284 284 283 285 285 285 286 284 287 295 296 296 295 295
288 288 288 287 287 287 288 288 288 287 287 288 291 293 294 295 295 292 292 293 290 291 292 290 292 291 292 292 292 292 291 291 292 294 294 291 290 290 289 289 288 287 284 286 290 291 291 291 292 292 293 294 294 294 293 293 290 290 289 288 287 287 287 285 281 284 284 285 285 282 281 284 283 283 284 284 283 284 284 285 286 295 295 295 295
286 283 283 285 285 284 283 284 284 286 286 286 290 292 292 294 292 291 291 291 291 290 287 288 288 288 289 289 289 291 291 290 292 293 294 291 290 290 289 288 287 286 284 284 287 288 290 291 291 291 292 293 293 294 294 294 292 291 290 288 286 286 286 285 283 284 281 283 284 282 285 282 282 281 281 282 283 281 282 284 286 288 290 291 294
285 285 285 285 284 285 285 285 286 286 286 286 289 290 291 292 291 288 289 290 290 289 289 288 285 286 287 288 288 290 290 290 293 294 294 291 291 290 290 289 288 287 286 286 286 286 286 286 286 287 287 287 287 287 289 291 290 287 286 287 286 287 285 284 283 282 282 280 281 282 284 281 283 282 281 278 277 281 279 280 284 283 284 284 284
Wind_Speed
8 8 7 8 7 7 7 8 8 7 7 8 8 8 7 7 7 7 7 6 5 4 4 4 4 4 4 3 2 2 3 3 4 2 3 3 3 2 2 1 3 8 12 13 15 16 17 18 19 19 18 19 17 15 14 14 14 14 13 11 10 8 6 5 6 6 4 5 5 6 6 4 2 7 5 9 11 12 15 13 12 9 11 13 14
8 7 8 8 8 7 7 7 8 8 7 8 8 7 7 7 6 5 5 5 4 5 4 5 4 4 4 3 2 1 3 3 3 3 1 2 3 1 4 2 1 4 9 12 14 16 17 17 19 20 19 20 18 16 15 15 15 16 15 12 9 9 6 5 4 5 4 3 4 5 5 5 4 3 5 7 10 13 12 13 11 9 13 13 12
7 8 7 8 8 8 8 7 7 8 7 7 7 7 7 7 7 7 6 5 6 5 6 5 5 4 3 3 1 1 3 4 3 1 1 1 2 5 2 4 2 3 5 10 13 15 16 17 18 20 20 21 19 17 16 15 16 15 15 13 10 7 6 4 4 3 4 3 3 5 3 5 4 2 4 4 9 10 10 8 10 12 11 13 10
8 8 8 8 8 8 7 7 7 7 7 7 7 7 7 6 6 6 5 5 6 4 5 5 5 6 4 4 3 2 4 3 3 2 1 0 3 5 2 3 3 3 3 8 10 14 16 16 19 20 20 20 20 18 17 17 16 16 15 15 11 8 7 5 3 2 1 1 3 4 3 5 3 3 6 4 5 8 8 8 10 11 12 12 11
8 9 8 8 8 8 8 8 7 7 7 7 7 7 6 6 6 5 5 4 4 5 4 4 4 5 5 4 4 3 3 3 3 3 0 1 3 4 2 2 3 4 6 8 5 10 15 17 17 20 20 20 19 19 18 17 17 17 16 15 15 9 8 9 6 3 2 2 3 2 5 4 7 6 4 4 4 6 8 8 9 11 11 10 9
7 8 8 8 8 8 8 7 7 7 7 8 8 7 7 6 6 6 5 4 4 4 5 4 3 2 4 4 3 2 3 1 2 2 0 2 2 3 3 1 3 3 4 6 6 8 13 16 17 18 21 21 20 19 19 18 16 16 17 16 13 11 9 9 10 9 9 9 9 8 4 4 4 1 5 5 5 7 7 7 8 7 7 9 10
9 8 9 8 8 8 9 8 7 7 7 7 8 7 7 7 7 7 4 4 4 4 4 5 4 4 4 4 5 4 1 2 4 3 2 2 3 3 2 1 3 3 5 3 5 6 9 13 15 16 18 19 22 20 19 17 18 18 20 18 16 13 11 11 10 10 10 8 9 11 7 5 6 4 5 6 5 7 6 8 8 8 6 7 8
10 8 8 8 8 8 8 7 8 7 7 7 7 7 7 7 6 7 7 5 5 4 4 5 5 5 4 4 4 3 2 2 3 2 2 0 3 1 2 1 0 3 4 3 3 4 9 10 13 14 14 17 19 20 21 19 18 16 16 17 18 16 12 12 13 12 10 9 9 9 8 5 7 9 7 4 5 6 8 8 8 9 9 8 6
11 9 9 9 8 8 7 8 8 8 7 8 7 7 7 7 7 7 7 7 7 5 4 5 5 4 4 4 3 3 2 2 3 2 2 1 4 2 2 0 0 2 3 3 3 4 6 9 11 11 11 14 16 20 21 20 17 16 18 19 19 17 15 14 15 15 12 8 5 7 6 6 7 9 9 5 8 7 7 8 8 8 9 9 8
11 9 8 9 7 7 7 8 8 8 8 8 8 7 7 7 8 6 7 7 7 6 5 4 4 4 4 4 4 3 3 3 2 0 1 3 4 1 0 2 2 0 2 2 3 4 3 6 9 9 11 12 12 17 19 20 19 17 17 16 17 16 14 16 19 17 14 14 11 8 7 7 8 8 10 9 8 8 7 7 6 6 7 9 9
10 10 9 8 8 8 8 8 8 8 8 8 8 7 7 7 8 7 6 6 7 6 6 5 4 4 4 4 4 4 4 3 2 2 3 4 1 1 1 4 2 1 1 1 2 3 3 3 5 5 6 11 12 12 17 18 19 19 18 16 17 17 16 17 19 17 17 14 11 12 10 7 8 8 9 11 10 9 10 9 9 8 7 7 7
11 10 10 8 9 8 8 9 9 8 9 9 9 8 9 9 7 9 7 5 4 7 6 5 3 4 3 3 4 4 4 3 3 2 3 2 2 3 4 5 1 3 0 0 2 3 3 3 4 5 5 8 12 10 12 14 18 18 18 18 18 19 21 20 17 16 17 14 13 14 10 9 8 8 8 9 10 10 11 10 10 10 11 10 8
10 10 10 9 8 7 8 8 9 9 9 10 9 9 7 8 7 7 9 7 5 4 6 7 6 1 2 4 4 4 4 4 3 3 3 3 3 3 3 1 0 3 1 1 2 2 2 3 3 5 6 5 7 10 11 12 13 18 18 18 17 17 18 16 16 18 19 18 17 15 12 13 12 11 11 11 11 12 12 12 12 14 13 13 14
10 10 9 9 8 8 7 9 9 9 8 8 7 8 8 8 7 6 5 8 6 5 6 8 4 5 3 3 3 2 4 4 4 3 3 4 4 3 1 2 0 1 0 1 2 0 2 2 2 4 5 5 6 6 6 7 9 14 15 16 17 16 16 17 18 20 18 16 16 15 15 16 17 16 16 16 16 16 15 14 14 14 14 14 15
10 9 9 8 8 8 8 8 9 9 8 9 9 9 9 10 10 9 7 4 4 4 6 7 6 6 3 2 2 2 1 1 1 3 3 4 2 2 3 2 3 0 1 0 1 0 0 1 2 3 4 4 5 6 6 6 9 14 14 11 14 16 16 17 18 19 18 16 15 16 18 18 18 17 18 18 17 17 17 16 15 15 16 16 15
9 9 8 9 9 9 8 8 10 9 9 10 10 10 10 9 10 9 9 8 6 7 7 7 5 8 3 4 4 5 1 5 3 2 5 4 4 4 3 3 3 3 2 2 1 1 1 1 2 2 3 4 5 5 6 5 9 11 14 10 12 13 13 16 17 17 18 18 16 16 15 14 15 15 15 15 16 17 17 16 15 14 14 14 14
10 11 10 11 11 10 9 9 10 9 9 9 10 12 12 11 12 10 12 11 9 5 7 8 7 6 6 3 0 0 4 2 4 0 3 3 4 4 4 4 3 4 3 3 2 2 1 2 1 1 3 4 4 4 5 5 6 7 8 11 11 11 15 15 15 17 18 18 17 16 16 15 14 15 14 14 14 14 14 13 13 13 13 12 12
9 10 10 8 9 9 8 9 10 9 9 9 9 9 10 11 12 11 11 8 11 7 7 5 9 9 4 3 2 3 5 4 5 2 0 3 5 4 4 4 3 3 4 3 3 3 3 2 0 2 1 3 4 4 4 4 5 6 6 8 12 13 14 13 14 16 17 17 16 15 16 16 15 14 15 14 13 13 12 11 11 11 10 10 10
9 9 9 9 8 9 9 9 10 10 9 9 9 11 11 12 10 10 10 9 9 9 10 9 5 6 4 3 3 1 1 6 3 5 2 1 3 4 3 4 4 2 3 4 4 3 3 3 2 2 3 1 4 4 4 4 6 7 12 13 10 12 12 14 15 15 16 16 16 15 15 15 16 16 16 15 14 13 11 10 9 8 8 7 8
9 9 10 10 9 9 9 8 9 10 10 10 10 10 9 8 10 11 9 9 11 11 9 9 11 8 6 5 3 1 0 1 1 4 6 5 3 3 2 4 4 4 4 4 4 4 4 4 4 2 3 2 2 3 3 4 4 5 6 12 10 11 12 13 14 14 15 15 16 16 15 15 15 15 15 15 15 14 12 10 9 8 8 8 8
9 9 10 10 9 9 9 9 9 10 9 9 8 10 12 12 12 11 11 10 8 8 9 10 9 8 7 5 4 4 2 1 2 2 2 4 1 4 3 1 1 4 5 4 4 4 4 5 4 4 5 3 1 2 2 4 4 4 6 11 10 11 11 12 13 14 14 15 15 15 15 15 15 16 16 15 14 14 14 11 9 9 9 10 10
9 9 9 10 10 9 9 10 10 9 9 10 9 10 11 12 13 13 11 11 8 8 10 9 9 7 9 8 8 4 2 2 2 3 1 1 6 6 5 6 5 5 4 5 4 3 3 3 4 3 3 5 3 2 2 3 3 4 6 10 10 10 11 12 13 13 14 14 14 15 14 14 15 15 14 14 14 14 15 14 12 10 11 11 11
7 8 9 9 10 9 9 9 8 7 8 9 10 10 11 11 10 9 10 11 10 10 6 9 9 8 9 9 10 11 10 8 7 5 4 3 3 4 3 5 5 3 5 5 4 4 4 4 4 4 4 5 4 1 2 3 3 3 8 10 11 9 10 12 13 13 14 13 13 12 13 13 14 14 14 14 14 15 15 15 15 12 11 12 12
7 7 8 9 10 10 8 8 9 8 9 8 8 7 8 8 9 10 10 10 8 10 8 8 11 8 9 9 8 8 7 7 7 7 8 5 7 7 7 3 2 2 1 3 4 4 4 5 4 5 5 5 5 6 2 3 3 4 4 8 10 10 10 10 11 13 12 13 12 12 11 12 13 13 13 14 14 14 14 14 14 14 13 12 11
9 10 10 11 10 10 10 10 9 9 8 8 8 7 8 9 10 11 11 11 10 10 10 8 10 10 9 8 8 8 8 6 7 7 6 6 7 7 5 4 4 2 2 2 3 2 5 6 5 5 5 4 5 6 5 4 2 3 5 5 9 10 10 12 11 11 12 12 12 12 11 11 12 12 12 12 13 13 13 13 13 11 10 11 11
10 11 10 10 9 9 9 9 7 7 7 8 8 7 9 9 10 11 11 10 8 9 10 9 8 8 8 8 9 8 8 7 7 8 8 7 7 8 6 1 2 4 1 2 1 3 1 2 5 4 4 5 6 5 5 5 4 3 5 3 5 8 8 9 10 11 11 11 11 11 11 12 11 12 11 11 11 11 11 12 11 11 9 8 8
9 8 8 10 9 8 9 9 8 8 7 8 8 7 7 7 7 9 8 8 10 9 8 10 9 8 8 9 9 8 8 8 7 9 8 8 8 8 9 8 2 1 3 3 1 3 3 0 0 3 4 5 5 4 6 5 5 6 5 3 1 7 8 8 9 9 9 10 10 10 10 10 11 11 11 11 11 11 10 9 9 8 8 8 8
7 8 8 9 9 9 8 9 8 8 8 9 8 7 7 8 7 8 10 7 10 9 8 9 9 9 7 8 8 8 8 8 7 7 8 8 7 8 8 9 10 5 2 3 3 5 3 3 1 1 4 5 5 4 5 6 5 5 4 4 3 3 7 6 7 9 8 8 8 10 9 9 10 10 10 11 11 10 8 7 7 8 9 9 10
7 8 8 9 9 9 9 9 9 9 9 9 9 9 8 8 9 9 10 8 9 10 8 9 8 9 7 8 8 7 7 6 5 6 7 5 7 7 8 9 8 8 7 6 6 6 4 3 3 2 2 4 5 4 5 4 5 5 2 4 4 2 4 6 5 6 8 8 7 8 8 10 10 9 10 10 10 10 10 10 9 10 10 9 10
7 7 8 9 9 10 9 9 9 9 9 9 9 8 8 8 8 9 9 8 9 7 8 8 8 8 8 6 6 8 6 6 7 6 5 6 6 7 7 7 8 9 7 8 7 5 4 4 2 3 2 4 4 4 4 3 5 3 1 3 4 4 6 6 5 5 5 7 7 7 7 7 9 9 11 11 10 10 9 8 11 13 13 14 13
7 8 8 9 9 9 8 8 9 9 8 8 8 8 8 8 7 7 7 8 8 9 8 8 7 8 9 8 6 7 7 7 6 6 5 6 7 6 6 6 5 6 7 6 4 4 4 7 0 3 5 4 4 4 3 3 4 2 1 3 3 4 6 5 6 5 5 7 8 8 8 7 8 8 8 9 10 11 12 12 11 13 14 14 14
6 7 8 9 9 9 8 9 9 9 8 8 8 8 8 8 8 7 8 9 9 9 8 8 7 8 9 9 8 7 6 7 6 7 6 5 6 6 6 6 5 4 4 4 5 4 2 5 4 5 6 6 5 5 4 2 1 1 2 3 3 4 3 3 5 6 6 7 7 7 8 8 7 7 8 9 10 11 12 12 13 13 13 12 11
6 7 7 8 8 9 9 8 9 9 9 9 8 8 8 8 8 8 7 10 10 9 8 9 7 8 10 10 9 8 6 8 7 7 7 6 6 6 6 7 7 4 5 4 4 4 2 2 6 6 4 6 4 5 5 4 3 2 4 3 2 2 2 4 4 6 7 6 6 6 7 7 7 7 8 9 9 11 12 12 13 13 13 13 12
6 7 7 7 7 8 8 8 8 8 9 9 8 8 9 9 9 7 8 10 10 10 9 10 9 8 9 11 9 9 7 8 8 8 8 7 7 7 6 7 7 6 5 5 4 5 4 1 3 4 5 3 4 3 7 6 4 4 4 3 2 2 4 6 5 4 7 6 6 7 7 7 6 6 7 7 8 9 10 10 9 9 9 10 10
7 8 8 8 8 8 8 8 8 8 9 9 8 9 9 9 10 9 8 10 11 11 11 11 11 9 9 10 11 10 7 8 8 8 8 8 7 8 8 6 7 7 5 5 5 4 8 4 4 6 5 3 4 3 4 5 5 5 5 4 3 1 2 4 6 4 7 7 7 6 7 8 7 6 6 6 7 8 8 9 9 8 9 9 9
8 7 8 8 8 8 9 8 9 8 9 9 9 9 10 10 10 10 9 9 10 11 11 11 11 11 11 10 10 10 10 10 9 8 8 8 8 7 7 6 7 7 6 5 5 5 4 8 4 7 5 6 1 3 4 4 5 4 4 3 2 3 2 1 4 4 4 6 6 7 7 8 7 7 7 7 7 7 7 8 8 7 7 7 7
7 7 7 7 8 9 9 10 9 9 9 9 9 9 9 9 10 10 9 9 10 10 11 10 11 12 11 12 11 11 10 11 8 8 8 9 8 8 8 7 7 6 5 6 6 4 6 8 6 3 4 2 1 3 5 7 3 3 2 2 2 3 2 1 3 3 4 4 3 4 5 6 7 7 7 7 7 6 6 6 6 6 6 6 6
7 7 8 8 9 9 8 9 9 9 9 9 10 10 10 9 9 9 9 9 10 10 10 10 10 10 11 11 10 11 11 12 11 9 9 10 8 9 8 8 7 6 7 6 6 4 6 7 8 4 2 5 3 1 3 5 7 3 1 0 1 1 2 1 1 1 1 2 2 2 3 4 6 8 8 8 8 8 7 6 5 5 5 5 5
7 7 7 8 7 8 8 8 9 9 9 9 9 9 9 9 10 10 10 10 9 9 9 10 9 10 10 10 10 10 12 11 11 11 10 9 9 10 10 9 8 8 8 8 7 7 6 6 4 6 6 2 4 6 2 4 4 4 6 4 3 2 0 3 2 0 0 2 3 4 5 5 6 5 6 7 8 8 9 8 7 6 6 5 5
7 8 8 8 7 7 8 8 8 8 8 8 8 9 9 9 9 9 10 10 9 8 8 9 8 9 10 10 10 10 11 11 11 10 11 11 8 9 8 8 9 9 9 8 8 8 7 6 6 7 5 6 2 2 2 4 3 1 3 4 8 4 4 2 3 5 0 3 2 1 3 4 3 4 5 5 7 9 10 10 11 10 9 7 6
7 7 6 7 7 7 7 8 7 7 8 9 8 9 9 9 9 10 10 9 10 9 8 9 8 8 8 10 10 10 11 13 15 13 13 12 10 10 8 9 10 10 8 8 8 8 7 7 5 4 7 6 7 7 6 7 10 10 6 3 4 5 5 4 0 1 2 3 1 2 1 3 5 4 4 4 3 5 7 9 8 10 10 9 8
7 7 6 7 7 8 8 7 6 7 8 7 9 14 12 9 9 8 8 9 9 9 9 9 9 9 9 9 10 15 15 16 16 16 16 16 15 12 11 11 11 10 10 10 9 9 9 9 9 8 8 9 9 9 9 7 4 3 5 5 5 5 5 3 1 1 0 4 3 4 1 1 4 3 4 5 2 4 4 5 4 5 7 8 8
6 6 6 7 7 7 7 7 7 7 7 7 12 14 15 15 10 8 9 8 7 8 9 10 10 10 8 8 8 12 14 14 15 17 16 17 17 15 15 15 14 14 11 11 10 10 10 10 8 8 9 9 9 8 9 8 6 8 7 7 7 7 8 8 5 1 2 5 3 3 2 1 3 5 3 4 4 5 5 5 6 8 8 7 8
4 4 6 7 6 6 6 6 7 7 6 7 12 14 15 15 13 9 8 8 8 8 8 9 9 8 9 8 7 8 9 11 10 12 15 17 17 17 17 16 15 16 15 15 13 9 9 9 8 11 10 11 10 9 7 7 8 6 6 8 8 9 8 6 4 6 3 4 4 5 3 1 3 5 3 1 3 4 5 6 7 7 7 7 7
4 5 6 5 5 5 5 6 7 6 5 8 11 13 14 15 15 11 7 8 8 8 8 8 8 8 8 8 7 7 7 13 11 10 9 11 15 18 17 17 16 16 14 12 11 12 12 11 11 10 11 9 8 9 9 10 7 9 7 8 7 7 6 6 5 2 2 3 7 3 2 1 1 2 3 0 2 4 4 6 7 7 7 8 8
4 5 5 5 4 5 5 6 6 5 6 8 12 13 14 15 14 11 6 8 8 8 8 8 8 8 9 9 8 8 6 8 9 10 8 9 9 9 9 9 9 12 12 11 11 12 11 10 10 12 9 7 10 8 6 9 11 11 10 9 6 7 6 5 3 5 2 2 6 4 2 1 0 3 2 1 0 4 3 5 7 8 9 11 10
4 5 5 4 4 4 4 4 4 5 5 8 12 14 14 15 14 11 6 6 7 7 8 8 8 9 9 9 9 9 8 9 9 10 10 10 9 8 8 7 7 7 5 5 5 5 6 7 8 8 7 8 7 7 7 8 10 8 9 8 8 6 7 4 5 3 3 2 4 3 2 2 1 3 1 1 3 3 1 5 7 7 11 11 11
1 3 2 3 4 3 3 3 3 4 2 6 10 12 13 13 14 9 7 7 7 7 8 7 8 8 8 9 9 9 8 9 11 15 13 10 10 10 9 6 5 4 3 1 4 5 5 6 7 7 6 7 10 9 9 9 8 8 9 8 8 8 9 7 6 1 1 2 2 4 3 3 1 5 2 0 4 5 4 4 4 7 11 11 11
1 2 2 1 1 3 3 2 4 3 1 2 5 10 12 13 10 7 7 7 5 6 7 6 7 7 7 8 9 9 9 9 12 15 15 14 10 10 9 8 6 5 3 2 6 11 11 12 13 13 14 15 15 16 15 15 11 10 10 9 8 8 9 8 4 5 5 4 1 4 3 5 2 3 3 2 3 2 3 4 5 9 10 10 9
1 3 3 4 4 4 3 3 2 2 1 1 0 2 6 10 10 8 7 7 6 5 3 3 4 4 6 10 10 9 10 9 13 15 16 15 11 11 11 10 9 8 5 3 5 6 11 12 12 13 13 13 14 14 14 13 12 9 11 11 9 8 8 8 7 5 3 3 1 1 5 3 3 3 4 1 4 3 3 4 6 6 9 8 10
2 3 4 5 4 5 4 3 5 4 2 1 2 2 2 5 6 5 6 7 6 5 6 4 3 3 2 3 7 9 9 10 16 16 18 15 11 12 12 12 11 11 9 8 9 9 7 7 5 7 7 8 8 7 8 12 11 7 5 7 8 9 9 7 7 6 5 2 1 1 5 2 4 0 5 3 2 1 1 3 6 5 6 6 6
Wind_Direction
194 184 167 182 180 183 178 176 179 184 177 179 185 200 200 188 187 185 189 208 207 202 174 185 180 190 199 207 183 233 266 266 256 266 277 269 301 168 135 126 351 353 351 354 358 359 0 358 356 357 6 2 8 8 6 0 358 358 346 333 322 311 310 310 313 332 320 322 26 36 10 34 119 127 157 154 143 131 131 153 171 179 188 181 196
194 182 175 179 182 183 184 178 176 181 177 179 187 187 190 186 187 178 183 196 203 199 182 203 186 202 171 170 188 230 252 258 258 238 260 317 307 271 200 232 301 330 352 358 1 4 360 3 2 360 7 8 8 9 8 5 8 9 359 340 326 317 315 299 275 300 310 348 75 74 43 12 358 74 152 163 141 139 136 159 176 168 178 181 187
189 185 182 177 179 184 187 176 176 182 174 180 181 182 184 183 180 177 176 192 214 201 180 188 184 203 182 149 201 251 287 277 263 240 255 283 320 300 252 248 261 268 345 349 5 4 3 5 5 7 6 8 8 8 8 10 11 14 9 0 355 354 360 327 289 274 307 354 57 80 71 4 7 75 146 164 126 133 136 146 153 171 171 183 188
183 185 184 181 183 183 183 178 183 178 174 176 178 179 181 182 178 172 175 182 204 209 181 177 183 182 186 165 171 226 248 271 284 252 211 257 277 282 295 311 326 308 308 334 352 359 356 357 4 14 5 9 14 9 18 20 17 16 10 11 12 24 29 4 328 301 323 36 53 65 115 86 11 246 153 143 123 125 134 152 152 164 167 175 182
183 183 182 185 185 181 183 186 180 176 172 174 173 176 175 173 174 168 172 181 191 205 174 190 188 190 162 166 178 206 220 246 275 272 191 255 271 280 318 311 18 347 346 318 347 355 347 350 3 13 12 7 13 19 19 24 20 18 15 16 17 21 21 37 57 85 331 11 54 67 140 169 185 209 129 126 123 125 136 145 147 156 162 166 169
182 180 179 181 186 186 183 185 181 175 168 168 173 172 172 163 168 153 178 181 193 205 157 180 245 199 160 171 156 204 220 241 251 241 150 291 281 298 303 16 27 346 312 315 3 350 344 348 358 10 17 7 11 16 18 23 26 26 21 22 30 25 44 52 61 63 61 56 53 54 71 95 94 156 136 117 122 135 133 136 132 140 149 161 159
187 177 179 179 184 186 185 185 177 171 166 171 167 168 166 168 158 159 177 185 194 203 164 180 208 218 190 164 171 206 183 216 250 230 224 244 267 270 318 61 22 331 306 309 1 341 340 342 353 359 13 2 12 17 12 17 27 23 28 22 31 31 52 67 68 69 60 61 69 67 42 82 132 135 125 118 124 127 130 133 139 145 154 154 150
189 177 178 182 183 187 187 174 176 168 165 165 165 170 169 167 170 160 168 189 186 209 189 191 201 203 182 164 182 156 156 255 259 201 216 223 293 272 300 89 30 305 303 333 12 347 337 341 348 351 6 3 6 18 13 20 31 30 35 31 35 45 45 61 68 71 72 74 80 103 120 101 95 108 94 84 123 117 119 125 133 148 157 155 154
187 181 177 183 182 182 182 177 172 170 162 167 173 175 168 166 175 173 164 175 179 194 196 191 206 191 176 170 162 142 161 249 263 237 148 237 261 254 325 222 151 351 331 330 19 357 331 344 348 349 354 359 4 14 13 16 29 30 35 35 36 39 44 56 61 59 61 64 64 71 90 110 114 108 103 87 116 106 108 115 120 140 152 154 158
185 184 180 182 180 177 174 174 170 167 162 166 179 174 171 164 172 181 172 164 176 181 189 188 197 184 172 172 185 164 197 221 260 238 182 244 243 240 281 282 127 335 316 348 31 345 331 345 343 352 352 346 354 15 15 10 23 34 43 39 44 46 46 52 54 53 54 54 58 65 84 93 109 113 116 117 120 127 124 112 120 131 150 158 160
184 185 183 178 181 176 172 173 169 169 164 165 176 179 171 171 167 176 183 173 169 177 175 173 189 176 177 196 187 191 200 202 200 188 219 220 195 223 263 268 184 140 338 2 41 342 338 354 351 352 347 339 346 8 15 9 17 26 40 43 42 45 54 55 56 52 57 47 56 67 70 113 128 139 139 138 144 138 131 131 132 135 141 156 166
185 186 185 178 180 179 170 170 172 170 170 169 178 183 176 173 173 165 173 196 174 164 167 167 166 158 190 232 205 196 202 196 206 216 249 192 209 205 228 254 171 160 152 327 52 344 341 14 350 352 345 339 342 356 7 5 13 24 32 39 42 41 44 48 52 55 59 60 60 65 75 91 121 136 128 130 134 133 124 111 109 115 125 136 144
185 183 188 181 179 173 165 172 172 177 177 181 179 181 175 169 164 159 164 172 206 177 171 144 140 183 232 223 244 219 194 193 204 204 232 232 210 211 249 265 124 119 126 288 97 336 334 23 355 357 349 343 346 353 4 2 3 22 30 35 42 50 49 51 56 55 55 55 60 57 73 97 104 102 99 102 104 99 97 107 115 121 113 108 113
183 184 183 182 175 174 174 174 174 179 179 174 171 173 168 164 160 153 173 167 185 178 173 128 167 173 167 261 272 268 212 181 188 220 222 236 219 202 241 209 74 119 212 291 132 145 330 358 15 19 346 350 350 349 359 2 2 8 23 34 35 46 54 48 50 53 54 58 62 68 71 80 90 88 88 94 101 101 101 101 105 108 113 108 101
180 180 179 178 178 178 184 173 177 174 170 174 174 176 177 172 172 165 162 174 162 185 177 166 164 175 203 109 218 139 310 334 265 211 210 216 221 199 226 229 164 218 207 248 69 313 15 344 31 31 350 351 350 349 350 3 7 2 10 27 40 36 48 56 51 55 55 55 68 65 62 61 65 71 77 84 88 93 96 98 99 99 100 100 97
176 178 178 181 182 185 179 173 181 179 178 175 179 178 177 175 173 170 158 164 181 195 186 185 150 143 218 192 200 148 256 255 191 252 187 207 193 217 208 224 197 194 241 138 156 302 69 24 47 44 1 350 350 350 351 6 9 2 5 8 58 45 41 54 59 57 57 58 61 64 65 64 63 61 59 66 69 76 81 83 87 88 89 89 88
178 184 187 186 185 183 181 176 178 182 180 181 183 184 183 179 174 169 177 174 181 167 197 187 199 191 144 137 308 30 221 185 116 321 169 179 210 210 198 215 194 196 214 173 189 204 156 61 353 57 13 350 349 350 355 10 15 360 359 6 53 59 53 49 56 59 57 56 56 60 66 65 65 67 67 62 61 61 64 67 70 74 77 79 84
182 188 191 188 186 184 180 178 179 182 187 187 184 179 181 181 185 179 179 183 170 156 178 205 200 217 213 165 159 178 162 181 104 199 287 207 198 220 192 211 223 198 212 177 198 216 142 142 312 108 69 337 340 352 357 19 22 7 0 354 49 55 65 64 54 56 59 58 56 57 60 61 62 65 69 72 71 67 61 62 67 72 75 79 83
186 185 189 190 187 188 186 183 181 185 186 184 185 188 186 187 181 183 184 171 163 173 176 180 187 237 197 164 159 182 156 133 189 112 132 291 186 204 230 217 217 205 240 206 197 170 156 151 219 156 129 24 338 343 354 30 30 26 14 9 44 53 60 64 63 61 61 59 58 57 59 64 64 63 62 62 62 64 69 74 78 82 84 86 84
184 186 187 189 189 189 188 183 182 187 185 193 191 187 183 186 187 188 178 181 177 177 173 171 176 204 184 162 152 148 159 93 125 154 153 152 227 276 219 198 204 220 220 227 194 190 168 173 184 169 123 84 339 331 353 38 31 16 13 7 49 60 64 65 66 66 65 63 62 61 60 62 65 66 62 61 61 60 60 65 70 78 91 93 85
185 186 187 187 189 189 188 188 185 188 189 194 191 185 186 183 184 184 187 188 183 169 162 181 181 185 160 189 165 202 203 182 157 114 135 120 191 178 189 268 237 250 240 227 207 185 171 174 174 148 133 128 232 307 355 54 37 22 9 19 54 67 72 74 75 70 66 65 65 64 63 64 63 62 63 61 61 61 60 64 74 77 76 81 79
188 186 185 186 188 189 190 192 192 189 188 193 192 188 188 190 189 188 183 183 186 177 177 175 184 175 183 169 174 177 170 199 205 172 155 139 162 196 182 167 187 254 216 214 192 188 169 149 146 158 156 157 184 247 54 72 53 36 16 15 30 67 73 79 80 77 73 68 65 65 66 67 67 66 64 64 64 65 63 62 75 78 73 72 72
182 187 187 184 187 191 191 192 191 189 186 193 200 193 191 189 186 180 184 183 185 189 175 172 175 176 179 180 190 184 186 182 189 177 161 150 118 165 164 183 180 176 226 197 195 201 186 186 165 180 200 159 156 206 117 111 77 49 37 26 23 39 72 83 83 81 78 74 71 69 67 67 68 68 66 65 62 62 64 64 67 81 77 67 66
186 188 191 187 184 192 192 187 191 192 195 195 199 191 183 179 179 182 187 188 183 188 189 170 179 178 182 184 193 188 190 185 181 170 175 179 150 166 167 176 121 201 221 178 207 193 200 190 189 180 201 154 159 180 133 107 73 74 59 40 39 29 57 67 82 85 80 77 75 71 71 70 69 68 68 68 66 63 64 66 64 64 71 72 68
193 193 197 191 185 187 191 193 193 196 193 190 196 185 180 179 182 184 186 187 187 183 189 187 179 176 181 182 177 183 194 184 158 175 183 162 150 146 205 154 157 173 227 146 212 238 190 194 186 194 189 166 165 171 145 117 130 110 104 60 63 48 50 65 59 73 85 80 74 75 74 72 71 71 68 65 64 66 68 70 71 69 64 62 62
188 196 192 188 191 190 189 194 194 192 189 192 192 188 183 183 182 184 187 189 183 183 188 185 181 176 168 171 181 185 189 186 174 169 177 167 172 160 154 137 105 173 243 184 239 113 300 196 184 179 167 148 161 155 135 137 133 145 124 108 73 79 64 66 66 65 67 78 83 74 71 74 74 72 70 69 69 67 66 67 69 71 71 71 68
190 190 180 189 191 186 186 190 193 193 189 190 193 190 187 179 182 185 184 183 187 181 182 182 182 180 177 176 176 181 186 192 175 179 175 182 168 161 152 144 101 110 187 235 239 190 191 313 88 163 167 157 160 156 141 140 149 169 139 120 77 89 78 60 77 77 70 71 77 83 81 76 73 69 67 64 62 66 67 64 62 60 63 71 80
183 177 184 182 187 187 185 189 189 192 192 192 194 193 187 182 180 181 186 182 185 186 184 181 186 184 178 177 171 186 184 187 182 176 175 174 162 155 157 156 151 178 220 197 216 242 192 132 322 213 173 164 172 150 145 137 145 171 149 141 131 87 92 82 77 80 82 83 79 77 81 95 88 83 74 66 64 66 72 76 78 73 68 67 75
177 177 177 181 183 184 185 187 188 191 192 192 193 193 187 185 183 182 186 183 184 190 181 181 184 183 178 181 181 181 188 183 176 175 171 163 165 158 167 168 167 147 174 193 223 195 232 174 145 260 193 165 148 147 140 157 165 172 186 141 133 117 110 96 82 80 69 61 77 83 77 80 93 98 95 86 80 73 67 65 69 70 69 72 67
169 173 169 174 177 182 183 186 188 189 190 188 190 188 184 189 186 186 185 177 183 185 189 179 180 180 183 180 174 183 189 175 181 176 168 171 171 173 169 171 158 163 169 173 219 202 179 222 151 180 200 167 152 156 154 165 171 178 150 111 124 136 138 119 103 91 80 69 64 90 80 75 77 78 85 89 87 78 76 81 79 71 69 67 66
159 163 167 173 177 182 183 184 186 190 187 188 187 188 185 189 188 182 180 178 181 186 188 181 181 174 183 187 183 181 183 179 178 178 171 168 179 169 179 176 168 154 159 158 164 239 159 186 200 130 144 166 155 141 125 128 166 166 139 107 116 143 142 133 128 113 96 86 77 80 96 90 76 71 75 75 74 76 76 77 78 77 76 70 64
161 164 170 175 178 182 185 184 187 188 187 187 186 188 185 193 189 183 184 179 184 185 185 184 177 178 178 187 190 185 182 174 177 181 180 178 170 172 177 181 188 162 146 141 144 173 189 161 143 142 143 144 147 129 122 80 62 89 116 108 147 149 137 132 135 118 102 94 86 81 81 80 78 71 70 65 65 60 63 65 63 61 65 69 75
162 171 175 177 179 182 183 186 187 186 186 186 186 187 189 191 193 190 182 184 184 186 180 185 180 177 182 186 191 192 175 175 179 178 180 178 172 174 172 169 185 184 153 147 134 143 21 90 132 150 162 135 142 152 138 136 133 134 106 131 147 150 150 136 121 113 109 104 104 104 97 85 78 71 68 66 63 65 63 60 60 56 52 55 51
170 176 178 178 180 181 185 187 188 187 187 187 185 186 191 190 194 192 188 185 186 186 182 188 185 181 180 184 189 190 184 177 174 180 180 177 176 175 182 173 182 189 174 141 161 141 151 111 87 119 145 140 131 169 152 151 166 143 126 124 72 85 105 117 122 129 124 119 120 118 114 114 109 98 87 80 77 75 74 71 69 65 62 57 53
181 178 180 178 181 181 186 188 186 188 188 189 187 188 192 191 193 195 191 188 187 187 189 191 188 181 181 186 188 185 181 177 183 182 176 180 177 180 184 176 178 186 184 165 145 148 148 176 166 155 170 162 148 184 142 149 157 152 143 150 147 114 81 113 131 138 144 140 140 136 135 133 127 124 119 109 100 91 89 86 79 74 73 70 67
185 184 181 180 179 182 185 188 190 189 189 188 188 190 191 192 195 196 194 193 192 192 191 189 187 186 187 185 189 184 184 184 185 180 181 175 179 184 182 183 174 182 186 173 174 143 161 148 202 169 182 154 102 117 115 114 128 126 145 149 112 139 155 107 127 141 160 155 154 152 149 144 139 135 132 129 122 119 112 106 101 97 87 84 78
188 181 187 180 181 184 187 188 189 191 190 188 189 192 193 194 195 196 198 196 195 195 194 192 189 189 189 191 186 183 183 187 185 181 177 180 182 179 186 181 177 176 176 179 179 159 146 165 170 203 153 114 135 137 149 130 91 74 71 131 185 188 163 157 112 141 161 153 148 150 137 132 135 131 127 125 121 118 114 108 108 104 105 100 95
191 189 185 188 186 190 190 189 189 190 187 189 192 193 193 192 195 198 199 199 197 195 195 193 190 191 192 191 186 184 185 188 189 183 179 180 175 181 182 181 177 167 171 181 178 166 154 164 159 137 164 140 115 150 195 136 140 129 103 324 57 70 124 99 34 99 132 140 143 124 116 117 120 125 125 124 122 116 111 111 106 105 97 85 70
193 192 193 191 192 187 192 187 191 189 189 190 192 192 192 193 195 196 198 200 198 197 197 195 192 191 192 190 189 188 189 190 186 185 180 179 181 185 184 179 175 168 170 179 177 178 172 155 158 162 157 202 141 155 193 140 145 150 157 154 211 291 113 143 142 297 32 62 67 92 120 139 137 132 130 131 133 136 135 131 124 115 103 93 82
200 198 195 195 195 189 190 192 191 186 187 191 193 192 191 192 192 199 198 198 198 198 197 197 194 192 191 191 192 192 190 190 187 186 180 183 178 183 184 171 174 170 174 171 174 178 181 180 167 168 175 155 124 66 99 117 138 224 193 149 179 193 207 203 178 159 252 117 141 62 41 78 83 107 120 123 128 130 130 127 128 130 130 123 110
201 203 198 191 191 197 196 192 191 189 192 195 193 190 189 191 193 197 199 198 196 197 197 197 197 193 191 192 193 194 191 190 190 186 188 182 177 181 185 174 175 175 171 171 176 176 185 183 185 149 157 162 176 147 162 180 195 190 187 142 161 173 165 140 111 136 156 135 153 115 112 152 121 119 120 100 127 114 105 106 109 111 116 115 110
203 200 197 195 192 196 196 197 194 194 200 200 194 190 187 188 191 195 197 200 196 195 195 197 201 199 195 192 194 192 189 187 188 187 187 186 188 186 179 177 175 176 175 175 178 183 178 185 193 171 168 188 185 185 180 203 155 112 143 160 146 167 126 114 4 287 222 122 118 125 149 56 107 89 99 116 133 108 107 87 99 101 99 102 105
207 205 195 197 201 194 193 195 199 204 205 203 192 189 190 187 186 191 194 198 196 195 196 196 200 199 198 194 190 191 188 188 188 188 186 187 187 187 185 186 182 176 174 179 188 178 182 193 185 179 191 190 198 187 191 176 176 172 178 172 151 148 160 153 184 292 280 137 122 117 158 344 91 103 92 109 108 85 87 102 99 91 95 97 97
224 201 204 209 203 196 195 197 202 207 211 201 190 193 192 190 186 187 189 192 194 196 196 198 199 197 197 193 193 186 189 187 182 187 189 188 186 186 185 188 188 191 186 181 177 181 187 182 180 199 187 200 191 181 185 166 184 169 171 167 171 168 166 175 166 173 228 126 115 115 172 312 66 93 84 92 103 113 116 101 89 86 84 82 78
206 205 219 209 212 207 196 198 208 208 209 200 191 192 193 192 191 184 190 189 189 197 194 195 195 194 192 190 191 192 193 182 179 182 182 188 189 185 186 189 190 191 193 197 192 189 180 181 188 193 197 187 178 202 184 178 155 166 165 171 179 170 172 167 177 161 157 132 105 94 131 245 93 105 115 254 137 111 91 86 85 75 69 63 63
212 222 220 216 215 209 206 204 207 207 205 202 192 192 195 195 195 189 187 189 192 195 196 192 193 191 190 186 187 192 188 181 185 179 177 177 179 181 183 186 190 195 186 173 174 185 182 187 181 195 202 168 193 184 182 154 156 172 169 178 165 159 163 178 184 144 175 106 142 138 78 219 121 102 114 265 130 107 123 123 89 68 60 62 60
212 213 216 222 228 217 219 204 198 209 213 196 194 194 197 198 197 194 189 189 192 197 197 195 193 191 189 189 189 189 185 186 188 179 173 174 171 175 174 178 183 176 159 147 146 149 163 174 182 186 177 180 167 156 156 161 159 162 163 163 160 143 127 111 65 63 77 66 108 90 149 223 188 97 172 119 80 56 10 103 83 63 57 60 59
198 178 204 185 205 211 209 192 190 219 244 196 194 197 198 199 197 196 199 193 191 194 198 198 196 190 187 185 186 184 185 188 194 184 177 165 169 170 175 172 161 137 109 271 163 120 122 133 137 140 145 141 138 135 134 128 118 115 100 96 99 114 119 112 136 157 147 272 115 119 124 158 182 113 137 64 79 75 50 51 68 79 70 67 64
110 152 163 113 135 158 158 167 189 208 205 309 222 200 198 197 191 197 201 202 190 191 200 196 191 185 184 186 180 182 178 190 191 184 174 161 170 172 171 169 157 135 117 73 111 113 112 111 115 119 119 119 118 119 122 125 131 131 119 119 147 143 136 141 156 151 192 187 226 124 125 134 188 125 108 59 102 108 67 52 59 90 90 81 76
55 68 80 70 50 53 64 53 67 101 94 302 150 226 219 204 190 192 195 195 199 178 171 154 155 159 173 177 178 176 182 187 183 179 172 165 172 175 169 161 157 155 154 143 101 89 102 106 108 111 113 115 114 114 121 127 133 137 142 159 170 142 153 156 157 163 157 153 199 33 108 186 149 104 108 62 43 34 65 83 82 67 67 67 64
60 75 74 83 62 46 42 49 38 53 81 240 203 185 224 235 209 193 187 189 184 180 155 137 90 119 128 140 171 181 180 179 178 177 173 171 174 175 173 165 167 172 174 160 140 133 125 110 97 98 85 97 105 111 117 116 115 115 128 146 152 152 158 163 146 125 114 223 247 321 129 222 103 206 125 98 77 344 19 77 78 64 60 62 55